Regional Weather Roundup
Issued by NWS Goodland, KS

Home | Current Version | Previous Version | Text Only | Print | Product List | Glossary On
Versions: 1 2 3 4 5 6 7 8 9 10 11 12 13 14 15 16 17 18 19 20 21 22 23 24 25 26 27 28 29 30 31 32 33 34 35 36 37 38 39 40 41 42 43 44 45 46 47 48 49 50
000
ASUS43 KGLD 032308
RWRGLD

GOODLAND FORECAST AREA HOURLY WEATHER ROUNDUP
NATIONAL WEATHER SERVICE GOODLAND KS
400 PM MST TUE MAR 03 2015

...OFFICIAL OBSERVATIONS...

CITY           SKY/WX    TMP DP  RH WIND       PRES   REMARKS
GOODLAND KS    SUNNY     31  14  49 N14G22    29.86F
HILL CITY KS   CLOUDY    34  13  41 N18       29.93S
IMPERIAL NEB     N/A     29   8  41 N15       29.91F WCI  18
MCCOOK NEB     SUNNY     34  10  37 N14       29.93R
AKRON CO       CLOUDY    24  11  57 NE8       29.84S
BURLINGTON CO  CLOUDY    27  15  61 NE14      29.84S WCI  16
LIMON CO       NOT AVBL
$$

...UNOFFICIAL OBSERVATIONS...

CITY           SKY/WX    TMP DP  RH WIND       PRES   REMARKS
COLBY KS       MOSUNNY   34  18  51 N16       29.89S
GOVE KS          N/A     33  32  96 MISG        N/A
LENORA KS        N/A     32  32 100 S14         N/A
NORTON KS      SUNNY     34   7  32 N12       29.91S
SHARON SPRINGS   N/A     31  22  68 NE12G18     N/A
KIT CARSON CO    N/A     26  19  73 MISG        N/A
YUMA CO          N/A     27  10  48 NE9         N/A
$$


USA.gov is the U.S. government's official web portal to all federal, state and local government web resources and services.